Kosmos-2316

operational
NORAD ID: 23620 Int'l Des: 1995-037 Owner: VKS/IACG Country: RU
MEOCIRCULAR

关于 Kosmos-2316

正在加载描述...

实时位置

正在加载3D地球...

即将过境

高度历史

Altitude vs Time

uPlot chart will show altitude changes over time

两行轨道根数

1 23620U 95037A 25258.37356098 .00000026 00000-0 00000-0 0 9998
2 23620 65.4705 211.6982 0012683 157.0379 289.1530 2.13101627234586
Epoch: Sep 15, 2025 • Age: 75 hours

当前状态

高度 19173.9 km
速度 3.95 km/s
星下点 -40.42°S, 15.89°E
发射日期 Jul 24, 1995
运行时间 30.1 years
类型 other

技术详情

分类 Payload
质量 1300.00 kg
干质量 1200.00 kg
总质量 1300.00 kg
长度 4.00 m
直径 1.50 m
跨度 7.80 m
形状 Cyl + Ant + 2 Pan
制造商 POL
平台类型 Uragan
阶段状态 In Orbit
所有者/国家 VKS/IACG/RU

大型星座

Loading constellations...